RH
66 29 19 23 25 18 19 19 22 28 28 29 27 29 29 36 34 41 65 58 57 55 53 50 66 64 63 62 61 59 59 59 61 59 59 58 59 60 60 60 60 60 59 59 60 61 61 62 61
24 22 21 20 21 18 18 18 22 26 30 31 34 35 35 41 49 74 66 60 54 49 44 46 66 64 63 60 59 60 60 60 60 59 59 59 59 60 60 61 60 59 59 59 60 61 62 62 61
20 20 21 18 16 19 20 18 23 30 31 31 33 32 35 48 54 61 55 58 48 43 38 51 66 64 62 60 60 59 60 60 59 59 59 59 59 60 61 60 60 59 59 60 61 62 62 61 61
23 21 19 18 18 18 18 20 25 32 33 29 28 34 39 42 52 57 55 50 43 38 39 59 66 64 61 60 59 59 60 58 57 59 60 60 61 62 59 59 60 60 60 60 61 62 61 60 60
18 16 15 14 16 16 16 22 25 29 29 29 29 34 42 50 46 52 55 45 43 40 44 50 65 65 61 60 59 60 57 56 57 59 59 59 61 59 60 60 60 60 61 61 62 62 59 59 58
15 16 16 14 14 14 16 24 25 26 28 31 32 33 45 46 50 53 48 46 40 45 46 50 62 65 62 59 59 59 57 57 59 58 58 60 59 58 59 59 61 61 61 61 60 59 58 57 55
20 17 16 15 13 13 20 24 26 26 29 30 27 33 47 47 48 50 48 43 44 45 48 53 50 57 63 60 57 56 56 58 58 57 58 56 55 56 56 57 61 60 60 61 59 58 55 54 54
16 16 16 13 12 13 24 24 25 26 26 27 25 31 41 43 48 48 42 40 44 44 45 47 47 44 50 49 57 56 55 57 57 56 56 47 45 44 52 49 58 59 58 59 59 57 55 52 46
16 16 14 13 12 13 23 22 28 28 29 28 28 28 30 42 47 48 44 41 42 42 41 41 38 43 47 44 47 50 53 50 44 46 48 35 32 31 33 53 56 57 56 55 55 54 50 44 30
15 14 12 9 9 10 19 19 22 28 29 31 34 37 38 46 50 48 44 45 46 45 38 34 38 40 45 30 37 38 34 34 36 37 38 30 41 38 31 38 45 43 50 39 43 41 37 31 20
12 12 10 8 9 9 12 18 20 24 26 24 30 40 45 47 49 46 41 41 43 40 37 34 44 46 38 32 28 25 27 31 35 43 39 41 34 34 28 28 26 29 33 26 26 23 22 30 26
12 10 9 8 16 14 15 18 23 22 23 26 25 36 43 46 46 43 41 39 39 40 39 36 38 45 41 30 26 30 29 30 29 36 40 37 31 35 35 30 29 30 26 31 27 23 29 29 28
12 10 9 10 15 17 24 22 22 23 25 26 28 37 42 41 43 40 38 37 37 40 39 35 40 43 42 39 33 34 34 30 33 32 41 35 33 38 34 34 30 30 29 28 27 26 25 25 25
10 9 9 17 20 23 24 20 24 21 27 30 32 36 38 40 42 41 40 41 43 38 36 40 35 42 38 39 43 38 36 38 32 33 39 42 38 42 34 34 32 31 31 30 27 28 26 24 24
11 14 13 17 20 21 21 17 20 24 26 28 30 32 36 39 41 43 41 43 41 34 35 40 40 43 42 43 40 36 33 31 32 33 45 45 44 44 46 36 35 35 35 35 30 29 26 23 21
15 16 15 17 21 22 21 16 12 22 24 25 28 32 37 40 41 40 40 38 34 29 36 36 31 40 44 45 38 33 35 35 32 32 36 46 46 47 43 36 37 41 34 32 32 30 28 26 25
15 14 14 16 18 19 21 16 10 22 24 23 29 31 35 39 39 40 38 34 30 31 37 36 41 40 43 46 38 42 49 35 33 34 35 47 45 47 43 35 38 43 33 34 34 33 35 34 32
14 16 14 14 14 16 13 13 8 16 22 24 26 31 35 36 37 39 36 33 29 32 36 38 38 46 46 45 45 38 35 33 33 34 37 46 41 45 41 33 38 37 33 34 37 43 38 37 37
13 14 14 12 11 15 12 11 12 18 20 23 27 31 33 36 36 38 38 36 34 37 37 37 40 44 36 32 34 32 32 32 34 33 43 42 43 42 38 32 34 37 35 42 45 42 43 36 38
13 12 11 9 14 16 12 13 18 19 24 27 27 30 33 36 39 41 41 38 39 38 38 37 36 37 32 28 37 36 33 33 33 34 40 40 42 42 35 42 37 41 38 44 46 46 42 36 38
11 13 11 11 13 15 18 13 16 18 24 28 31 30 33 37 41 43 42 41 38 38 38 34 36 36 39 45 40 38 38 32 28 28 28 35 40 41 45 44 42 44 43 41 45 45 49 47 39
12 12 14 13 16 12 15 11 16 15 23 32 35 36 36 37 39 40 40 38 36 36 36 36 37 38 45 57 46 41 31 30 31 29 29 29 39 41 41 46 46 47 44 46 45 42 48 48 47
10 16 17 17 15 16 15 12 16 16 23 31 38 39 39 38 39 41 38 35 32 35 36 39 44 48 58 47 43 32 34 28 29 29 36 35 35 39 41 46 49 48 44 47 50 50 51 47 54
13 15 16 18 15 16 13 13 27 27 37 34 38 40 41 40 40 38 36 35 34 32 39 46 47 56 46 42 40 41 41 36 34 36 32 31 31 33 39 44 46 48 48 47 44 47 52 53 58
14 15 16 17 16 16 15 16 33 35 41 42 43 43 44 43 42 40 38 35 37 40 45 45 48 50 42 40 39 38 38 42 36 35 31 35 33 34 40 45 48 45 48 47 45 45 53 58 74
13 14 18 22 18 15 17 21 34 43 42 44 43 45 44 43 42 38 37 38 38 42 44 43 44 42 39 39 38 37 39 31 30 34 36 34 35 36 43 45 46 48 47 45 44 44 60 66 80
18 17 17 24 30 22 17 33 40 30 41 47 47 47 46 43 41 39 38 40 41 41 43 47 46 43 38 37 37 38 38 40 39 41 40 36 39 36 43 47 48 47 46 45 46 56 67 73 76
16 16 20 18 26 25 20 25 30 39 44 46 50 49 47 42 40 40 39 42 39 41 50 60 57 44 36 36 36 34 38 39 39 39 42 43 42 43 46 46 47 46 46 45 48 60 64 69 74
15 16 20 19 23 22 22 30 40 46 46 50 50 49 46 44 42 41 42 41 39 44 67 72 50 36 36 36 37 41 41 38 39 40 42 44 46 46 46 46 46 46 45 49 55 60 61 69 68
18 22 20 22 27 29 24 37 43 47 46 48 49 50 46 43 42 40 41 41 43 55 73 49 44 37 37 36 39 42 40 39 40 41 42 45 45 46 45 45 44 44 51 53 58 65 66 74 62
Wind_Speed
17 14 6 5 8 8 4 8 5 1 4 4 4 1 4 10 7 6 9 10 16 14 13 14 12 12 11 11 10 10 10 10 11 11 12 12 13 14 14 15 15 16 15 15 17 16 16 17 16
13 11 6 5 8 6 7 5 8 4 7 8 7 4 2 6 7 11 11 15 16 14 12 13 13 12 12 11 11 11 11 11 12 11 12 13 14 14 14 15 15 15 15 15 16 16 17 17 17
13 7 6 5 3 8 8 7 5 7 9 5 4 3 2 6 10 14 14 17 16 14 12 15 14 14 14 12 12 12 12 12 12 12 13 14 14 14 15 14 15 15 15 16 16 17 17 17 16
7 6 6 9 8 7 7 6 3 10 5 4 2 6 7 6 11 9 19 17 15 14 15 15 15 15 14 13 13 13 13 13 12 13 14 14 14 15 14 14 14 14 15 16 16 16 17 17 16
6 5 7 5 1 3 3 4 7 10 7 8 7 7 5 4 13 19 18 16 15 14 15 15 15 16 14 13 13 13 13 13 13 14 14 14 15 14 14 13 14 14 15 15 15 16 16 16 16
7 5 9 6 5 2 1 2 6 8 6 8 6 10 7 11 17 18 17 15 15 15 14 15 15 15 14 13 13 13 13 13 14 14 14 14 13 13 13 13 14 14 14 15 15 16 16 16 16
10 7 6 6 5 2 4 6 7 8 7 8 7 7 8 14 17 19 17 16 15 14 13 12 13 14 14 12 13 13 13 14 14 13 13 13 12 12 12 12 13 14 14 15 16 16 16 16 14
6 6 6 4 5 5 6 6 2 7 5 7 7 5 8 18 20 19 17 16 15 13 13 12 12 11 11 11 13 14 14 14 14 13 12 9 9 9 12 12 13 13 14 15 15 15 15 15 12
5 7 7 5 7 6 7 5 2 2 6 6 7 2 7 25 23 20 17 16 14 13 13 11 11 9 10 11 11 13 13 12 9 10 7 4 7 8 9 12 12 12 13 13 13 14 14 15 8
9 8 3 6 6 6 4 8 7 8 9 9 9 8 19 24 23 22 20 18 17 15 14 11 10 10 9 7 7 7 7 8 7 7 7 6 7 7 6 6 7 6 11 8 11 10 11 11 9
8 12 3 6 6 5 7 7 5 8 8 8 13 16 22 21 22 21 19 17 17 15 11 12 10 9 8 7 5 4 4 4 5 7 7 6 5 5 5 5 5 6 8 7 9 9 8 11 9
11 13 11 6 2 4 5 2 5 12 5 6 3 21 23 24 22 20 18 17 16 16 13 12 11 9 7 6 4 5 4 4 4 6 6 5 4 5 5 5 6 6 7 9 9 7 9 9 9
14 13 5 7 7 5 1 6 8 6 3 3 11 19 21 20 20 18 17 16 15 14 12 11 11 9 7 5 5 4 4 4 4 5 6 6 5 5 5 6 6 7 8 9 9 9 9 9 9
1 9 11 4 3 3 4 3 4 7 9 8 13 16 17 19 19 18 16 16 15 13 12 11 11 8 8 6 5 4 3 4 4 4 5 5 5 6 6 6 7 8 8 9 9 9 9 8 9
8 12 9 8 3 1 3 13 12 10 9 8 9 11 13 14 16 15 15 15 14 12 13 11 10 8 7 7 5 3 3 2 3 4 5 5 6 6 7 6 7 8 8 10 9 9 9 9 8
10 7 13 11 6 4 2 15 10 5 4 5 7 9 10 12 13 12 13 13 13 13 13 11 8 8 7 6 3 3 4 2 3 4 3 6 6 7 7 6 7 9 8 8 8 9 9 9 9
11 13 13 2 3 3 6 16 13 5 2 2 5 8 9 11 11 12 13 13 13 13 12 10 8 8 7 5 4 3 3 0 3 3 4 6 6 7 8 6 8 10 7 7 8 9 9 10 9
9 6 6 8 6 6 11 12 10 12 4 5 3 7 10 11 12 13 13 13 13 12 10 10 7 7 6 5 3 2 2 2 3 4 5 6 6 7 8 7 8 9 7 7 8 10 9 9 9
7 9 12 12 4 7 8 10 11 13 13 9 5 7 9 10 12 13 13 13 13 11 11 10 9 8 4 4 2 1 2 2 3 5 6 6 7 8 8 8 8 8 8 9 10 10 11 9 10
6 10 13 7 3 7 5 4 14 17 18 16 10 9 10 12 13 13 14 13 12 11 11 10 8 6 5 4 5 3 2 3 5 4 4 7 7 8 8 8 8 8 8 9 10 10 10 9 9
10 9 10 9 3 7 6 10 15 17 21 19 17 13 10 11 13 14 14 13 12 12 10 10 10 9 10 7 1 2 4 3 2 3 5 5 8 7 8 8 8 8 8 8 10 10 13 10 10
10 3 7 7 8 5 2 6 13 12 19 21 16 12 9 10 11 13 13 13 12 12 11 12 11 11 10 8 3 5 6 6 5 5 5 6 6 7 8 8 8 8 8 9 9 9 10 10 10
4 3 3 3 5 6 9 9 12 11 13 19 14 11 9 9 11 13 13 13 13 12 12 11 12 11 7 6 5 5 6 3 3 5 6 6 6 6 7 8 8 9 8 9 10 11 11 9 7
0 6 5 5 6 10 3 7 13 9 13 13 11 10 9 9 11 13 13 13 12 12 11 10 11 7 7 6 7 7 6 6 7 7 6 6 5 5 6 8 8 9 10 10 10 11 11 10 8
9 8 7 6 7 3 5 5 10 11 11 10 8 8 8 8 11 13 14 12 11 11 11 10 8 7 6 6 7 7 7 8 6 8 7 8 7 6 7 9 9 9 10 11 11 11 10 10 7
8 8 6 7 6 3 4 6 9 7 8 7 7 7 7 8 11 12 12 11 11 11 11 9 7 7 6 7 7 7 7 5 6 8 7 7 6 7 10 9 9 11 11 11 11 9 8 10 8
5 5 6 1 2 6 6 8 7 7 10 6 6 5 6 8 11 12 11 10 10 10 10 8 7 5 6 7 6 6 7 8 8 8 8 7 8 8 9 11 10 11 11 12 13 8 9 10 9
4 3 4 3 4 5 6 5 9 10 10 6 5 6 7 9 11 11 10 10 9 11 9 7 4 6 6 6 6 7 8 8 8 8 9 9 9 10 10 10 11 11 12 13 12 9 9 10 8
2 1 2 2 4 5 5 9 7 9 8 6 6 6 7 9 11 11 9 9 11 10 8 4 4 5 6 6 7 7 7 8 8 7 9 9 10 10 10 11 11 12 13 12 10 11 12 11 12
9 4 4 5 5 3 4 7 6 6 5 4 6 6 7 9 10 10 10 10 9 8 6 3 4 6 6 6 7 7 8 8 8 9 10 10 11 10 11 11 12 12 12 12 11 12 15 12 14
Wind_Direction
147 172 175 223 238 239 52 50 9 71 155 66 84 274 20 24 352 16 134 131 135 121 121 122 117 113 107 100 98 95 88 82 73 64 61 57 48 44 37 37 28 27 25 21 22 16 13 11 5
158 160 199 275 266 314 43 16 13 52 87 120 124 133 149 76 69 119 137 137 132 134 126 123 120 117 108 99 95 89 80 73 66 63 59 55 48 44 37 33 29 26 24 19 19 15 12 9 4
160 191 258 258 295 11 350 22 31 105 135 165 125 10 47 79 95 142 128 141 137 129 123 117 126 121 107 101 92 85 78 74 66 62 58 55 50 44 38 33 29 25 23 18 16 13 11 5 1
171 198 227 261 15 63 355 25 91 145 152 182 85 104 102 17 140 139 141 146 134 132 118 127 131 123 107 100 92 86 80 71 67 63 57 54 50 42 36 36 29 25 24 17 15 12 7 4 357
217 245 249 246 37 11 330 11 163 173 156 160 183 126 86 92 111 133 149 142 136 128 123 131 133 124 106 98 92 84 77 70 67 62 61 57 52 43 37 36 32 27 23 17 15 11 4 1 355
225 272 240 241 66 56 54 121 172 180 152 137 178 144 99 128 142 146 150 143 136 132 128 135 135 125 106 98 92 86 78 73 70 66 65 59 51 48 35 37 35 28 22 19 14 7 3 359 353
269 250 293 303 342 223 77 151 186 187 174 176 134 152 111 155 148 151 150 142 138 138 134 137 136 129 111 99 92 85 81 76 74 70 67 62 53 47 43 38 34 25 21 17 12 7 1 356 351
270 267 244 219 298 23 115 170 268 202 159 107 188 167 159 162 154 153 150 147 146 145 143 143 140 143 136 116 97 87 81 80 74 72 68 63 72 46 46 21 34 26 19 16 9 3 357 352 347
263 250 249 253 259 66 148 205 181 64 151 197 161 6 102 146 154 158 158 154 153 155 154 150 148 148 135 124 110 106 92 88 86 87 63 70 46 32 40 44 26 24 13 10 3 359 351 342 339
239 252 268 307 326 316 192 244 168 203 189 189 161 112 132 152 161 166 168 165 166 164 161 155 153 150 141 118 121 106 87 66 62 55 45 50 38 39 15 53 29 23 360 356 349 357 337 346 345
208 254 304 296 349 305 302 242 210 229 214 226 201 159 155 163 170 173 174 172 170 163 160 158 151 158 153 140 140 123 95 93 85 59 30 51 25 22 26 10 9 358 8 1 350 353 359 350 344
246 244 270 304 301 282 279 297 224 238 41 37 169 160 164 171 175 177 176 172 169 166 162 160 155 152 147 143 132 116 108 98 75 61 32 26 25 22 12 9 5 3 359 354 351 349 343 342 340
239 262 280 291 268 268 196 228 272 250 116 100 123 158 171 175 175 176 174 170 164 166 156 163 148 152 146 147 117 105 117 73 78 65 51 18 14 13 9 8 3 358 352 351 345 346 339 337 338
294 263 271 271 237 175 248 246 248 85 128 145 153 166 173 178 175 170 172 166 166 156 155 147 151 146 141 115 120 111 99 120 69 57 44 36 3 3 4 1 1 357 351 344 340 345 334 334 332
259 253 219 216 204 234 264 245 216 103 163 163 164 162 168 174 170 173 168 165 166 154 142 151 140 139 133 125 135 128 103 81 61 54 47 13 4 5 348 359 355 358 341 336 339 337 334 330 328
241 245 247 132 144 77 279 290 59 116 177 175 152 152 158 159 167 162 164 161 151 140 145 145 139 136 126 110 139 116 106 75 51 25 10 1 8 4 346 353 354 352 335 341 343 339 336 331 330
205 261 268 176 65 100 245 312 334 131 151 122 158 148 147 141 159 157 156 151 144 138 141 134 130 127 119 116 104 97 121 18 47 4 352 11 13 8 344 354 348 336 338 346 342 340 336 327 331
286 253 233 270 112 237 286 280 309 97 31 25 126 141 140 152 155 149 152 139 138 133 128 119 108 111 114 103 111 144 104 63 13 17 23 360 31 4 345 347 350 337 343 344 344 334 334 320 334
293 278 278 284 270 265 271 296 26 44 42 53 87 127 130 143 131 142 136 136 129 126 122 117 112 109 132 149 138 100 21 52 29 45 15 22 12 2 354 351 350 346 346 346 342 337 336 333 345
249 269 270 280 161 242 313 322 74 61 58 43 50 101 122 124 136 135 140 135 137 124 111 111 111 92 53 51 39 357 3 51 27 16 19 14 5 1 351 353 347 354 340 344 346 344 335 334 339
256 273 281 285 158 233 258 226 108 91 61 55 53 68 106 136 140 141 142 135 127 119 114 100 84 79 61 66 49 63 185 199 357 352 7 25 356 359 357 351 346 343 340 344 341 345 336 328 322
278 22 286 257 245 276 250 299 82 123 66 52 49 62 89 118 133 139 136 137 115 104 96 83 81 78 61 33 27 349 6 4 7 348 11 339 4 352 355 345 345 342 336 342 341 337 327 326 322
318 320 288 238 262 275 181 265 80 56 26 33 42 59 81 108 129 136 137 121 113 108 97 96 81 73 67 54 14 350 19 20 2 352 342 352 358 354 357 342 334 339 339 340 335 330 326 320 324
268 234 219 235 269 252 114 286 63 25 359 11 49 62 82 105 123 126 119 125 116 103 97 90 86 83 68 52 41 32 23 5 2 357 343 353 350 340 3 337 333 332 339 334 330 325 321 324 323
224 246 255 239 216 297 102 266 51 32 19 17 36 67 89 113 128 135 142 132 117 116 102 92 92 77 63 52 40 30 16 19 353 350 354 342 344 343 355 336 331 335 333 329 328 321 336 326 315
216 277 277 282 288 352 158 136 75 64 53 52 61 78 104 125 140 148 140 133 118 101 93 95 87 70 49 39 33 28 16 360 356 359 350 346 335 336 335 332 323 327 330 330 327 323 335 324 309
139 233 4 188 31 257 93 105 135 51 70 62 68 91 110 133 146 142 132 115 111 110 97 89 75 62 40 36 23 21 8 5 359 349 346 343 336 331 332 324 321 327 331 329 325 341 325 310 308
351 78 228 190 255 285 120 95 45 19 27 75 86 98 117 135 142 141 132 126 116 97 97 78 58 52 40 34 17 14 5 359 354 346 345 338 334 329 326 326 328 330 331 329 328 332 329 312 310
160 130 30 358 326 301 296 93 13 10 23 52 86 105 131 145 147 147 135 127 107 110 93 105 72 49 34 26 15 9 0 355 350 345 343 343 335 335 334 334 331 333 331 331 335 329 323 308 313
51 29 327 300 123 33 317 96 37 37 52 72 104 117 127 144 149 142 140 128 127 119 87 88 62 40 29 24 10 2 359 352 355 356 352 346 344 341 339 336 335 334 335 337 331 334 318 316 318